Regional Weather Roundup
Issued by NWS

Home | Current Version | Previous Version | Graphics & Text | Print | Product List | Glossary On
Versions: 1 2 3 4 5 6 7 8 9 10 11 12 13 14 15 16 17 18 19 20 21 22 23 24 25 26 27 28 29 30 31 32 33 34 35 36 37 38 39 40 41 42 43 44 45 46 47 48 49 50
634
ASUS44 KMEG 261400
RWRTN
TENNESSEE HOURLY STATE WEATHER ROUNDUP
NATIONAL WEATHER SERVICE MEMPHIS TN
900 AM CDT MON SEP 26 2016

TNZ002-004-019-021-049-052-054-088>092-261500-
WEST TENNESSEE

CITY           SKY/WX    TMP DP  RH WIND       PRES   REMARKS
MEMPHIS INTL   PTSUNNY   68  60  75 NE16      30.12R
NWS MEMPHIS      N/A     67 N/A N/A MISG        N/A
JACKSON        CLOUDY   N/A N/A N/A N17       30.12R
DYERSBURG      CLOUDY   N/A N/A N/A MISG        N/A
UNION CITY     PTSUNNY   63  63 100 N7        30.14R
PARIS          PTSUNNY   57  57 100 N7        30.15F
LEXINGTON      CLOUDY    68  59  73 N13       30.10R
$$

TNZ008-025-027-028-033-062-065-066-261500-
NORTH MIDDLE TENNESSEE

CITY           SKY/WX    TMP DP  RH WIND       PRES   REMARKS
NASHVILLE      CLOUDY    73  67  81 NW14      30.09R
CLARKSVILLE    PTSUNNY   66  55  67 N20G33    30.11S
SMYRNA         CLOUDY    73  68  84 N10       30.09R
COOKEVILLE     SUNNY     81  68  65 NW5       30.06R
CROSSVILLE     SUNNY     74  63  68 VRB6      30.11S
$$

TNZ061-075-076-078-094-096-097-261500-
SOUTH MIDDLE TENNESSEE

CITY           SKY/WX    TMP DP  RH WIND       PRES   REMARKS
SHELBYVILLE    SUNNY     77  68  73 W8        30.08R
$$

TNZ017-018-042-046-047-261500-
NORTHEAST TENNESSEE

CITY           SKY/WX    TMP DP  RH WIND       PRES   REMARKS
TRI CITIES     MOSUNNY   75  66  73 CALM      30.10R
$$

TNZ012-013-036-069-073-074-261500-
CENTRAL EAST TENNESSEE

CITY           SKY/WX    TMP DP  RH WIND       PRES   REMARKS
KNOXVILLE      MOSUNNY   81  63  54 SW12      30.06
OAK RIDGE      MOSUNNY   78  64  61 SW5       30.09R
GATLINBURG     SUNNY     75  63  64 CALM      30.08R
$$

TNZ083-085-099-261500-
SOUTHEAST TENNESSEE

CITY           SKY/WX    TMP DP  RH WIND       PRES   REMARKS
CHATTANOOGA    NOT AVBL
$$

SKY/WX REPORTED AS FAIR MEANS FEW OR NO CLOUDS BELOW
12 THOUSAND FEET.





USA.gov is the U.S. government's official web portal to all federal, state and local government web resources and services.